| time (UTC) | temp F | wind direction | speed MPH | gust MPH | rain 1hr in | rain 24hr in | rain mn in | humidity % | barometer mb |
| 20260504002737 | 63 | 338 | 2.0 | 3.0 | 0.00 | 0.02 | 0.00 | 65 | 1006.5 |
| 20260504001738 | 63 | 338 | 3.0 | 4.0 | 0.00 | 0.02 | 0.00 | 64 | 1006.6 |
| 20260504000757 | 62 | 0 | 1.0 | 3.0 | 0.00 | 0.02 | 0.00 | 67 | 1006.7 |
| 20260503235717 | 61 | 338 | 2.0 | 3.0 | 0.00 | 0.02 | 0.00 | 74 | 1006.8 |
| 20260503234717 | 58 | 0.0 | 1.0 | 0.00 | 0.02 | 0.00 | 84 | 1006.8 | |
| 20260503233717 | 57 | 0.0 | 0.0 | 0.00 | 0.02 | 0.00 | 87 | 1006.9 | |
| 20260503232718 | 57 | 0.0 | 0.0 | 0.00 | 0.02 | 0.00 | 87 | 1007.1 | |
| 20260503231717 | 57 | 0.0 | 0.0 | 0.00 | 0.02 | 0.00 | 87 | 1007.2 | |
| 20260503230717 | 57 | 0.0 | 0.0 | 0.00 | 0.02 | 0.00 | 87 | 1007.1 | |
| 20260503225737 | 56 | 0.0 | 0.0 | 0.00 | 0.02 | 0.00 | 89 | 1007.1 | |
| 20260503224717 | 55 | 0.0 | 0.0 | 0.00 | 0.02 | 0.00 | 91 | 1007.1 | |
| 20260503223737 | 53 | 0 | 1.0 | 2.0 | 0.00 | 0.02 | 0.00 | 92 | 1007.3 |
| 20260503222718 | 51 | 23 | 1.0 | 3.0 | 0.00 | 0.02 | 0.00 | 92 | 1007.2 |
| 20260503221717 | 51 | 0 | 2.0 | 3.0 | 0.00 | 0.02 | 0.00 | 92 | 1007.2 |
| 20260503220718 | 51 | 0.0 | 1.0 | 0.00 | 0.02 | 0.00 | 92 | 1007.2 | |
| 20260503215717 | 51 | 0 | 1.0 | 2.0 | 0.00 | 0.02 | 0.00 | 92 | 1007.0 |
| 20260503214737 | 51 | 0.0 | 1.0 | 0.00 | 0.02 | 0.00 | 92 | 1007.1 | |
| 20260503213717 | 52 | 0 | 1.0 | 2.0 | 0.00 | 0.02 | 0.00 | 92 | 1006.9 |
| 20260503212737 | 52 | 338 | 1.0 | 2.0 | 0.00 | 0.02 | 0.00 | 92 | 1006.8 |
| 20260503211718 | 51 | 0 | 1.0 | 2.0 | 0.00 | 0.02 | 0.00 | 92 | 1006.6 |
| 20260503210717 | 52 | 0 | 1.0 | 3.0 | 0.00 | 0.02 | 0.00 | 92 | 1006.5 |
| 20260503205717 | 52 | 338 | 1.0 | 2.0 | 0.00 | 0.02 | 0.00 | 92 | 1006.4 |
| 20260503204717 | 52 | 0 | 1.0 | 2.0 | 0.00 | 0.02 | 0.00 | 92 | 1006.4 |
| 20260503203717 | 52 | 0 | 1.0 | 2.0 | 0.00 | 0.02 | 0.00 | 92 | 1006.4 |
| 20260503202717 | 53 | 23 | 2.0 | 2.0 | 0.00 | 0.02 | 0.00 | 91 | 1006.0 |
| 20260503201717 | 53 | 338 | 1.0 | 2.0 | 0.00 | 0.02 | 0.00 | 92 | 1005.8 |
| 20260503200717 | 53 | 0.0 | 0.0 | 0.00 | 0.02 | 0.00 | 92 | 1005.9 | |
| 20260503195737 | 53 | 45 | 2.0 | 3.0 | 0.00 | 0.02 | 0.00 | 92 | 1006.2 |
| 20260503194717 | 53 | 0.0 | 0.0 | 0.00 | 0.02 | 0.00 | 92 | 1006.3 | |
| 20260503193717 | 53 | 0.0 | 1.0 | 0.00 | 0.02 | 0.00 | 91 | 1006.1 | |
| 20260503192717 | 54 | 23 | 1.0 | 1.0 | 0.00 | 0.02 | 0.00 | 91 | 1006.1 |
| 20260503191717 | 54 | 0.0 | 0.0 | 0.00 | 0.02 | 0.00 | 91 | 1006.1 | |
| 20260503190717 | 54 | 23 | 1.0 | 2.0 | 0.00 | 0.02 | 0.00 | 91 | 1006.2 |
| 20260503185717 | 54 | 0.0 | 1.0 | 0.00 | 0.02 | 0.00 | 91 | 1006.2 | |
| 20260503184717 | 55 | 315 | 1.0 | 2.0 | 0.00 | 0.02 | 0.00 | 91 | 1006.0 |
| 20260503183717 | 55 | 0.0 | 0.0 | 0.00 | 0.02 | 0.00 | 91 | 1006.1 | |
| 20260503182717 | 55 | 23 | 1.0 | 3.0 | 0.00 | 0.02 | 0.00 | 91 | 1005.9 |
| 20260503181737 | 55 | 0 | 2.0 | 2.0 | 0.00 | 0.02 | 0.00 | 91 | 1005.8 |
| 20260503180737 | 55 | 0.0 | 0.0 | 0.00 | 0.02 | 0.00 | 91 | 1005.7 | |
| 20260503175717 | 55 | 0.0 | 0.0 | 0.00 | 0.02 | 0.00 | 92 | 1005.6 | |
| 20260503174717 | 55 | 0.0 | 1.0 | 0.00 | 0.02 | 0.00 | 92 | 1005.8 | |
| 20260503173737 | 55 | 0.0 | 1.0 | 0.00 | 0.02 | 0.00 | 92 | 1005.6 | |
| 20260503172717 | 55 | 0.0 | 0.0 | 0.00 | 0.02 | 0.00 | 92 | 1005.7 | |
| 20260503171737 | 55 | 23 | 1.0 | 1.0 | 0.00 | 0.02 | 0.00 | 92 | 1005.6 |
| 20260503170717 | 55 | 0.0 | 0.0 | 0.00 | 0.02 | 0.00 | 92 | 1005.8 | |
| 20260503150737 | 56 | 68 | 2.0 | 2.0 | 0.00 | 0.02 | 0.00 | 92 | 1006.1 |
| 20260503130716 | 58 | 0 | 1.0 | 2.0 | 0.00 | 0.02 | 0.02 | 91 | 1007.0 |
| 20260503110717 | 57 | 23 | 1.0 | 1.0 | 0.01 | 0.02 | 0.02 | 92 | 1006.7 |
| 20260503080716 | 59 | 0.0 | 0.0 | 0.00 | 0.02 | 0.02 | 90 | 1006.3 | |
| 20260503072716 | 60 | 0.0 | 0.0 | 0.02 | 0.02 | 0.02 | 89 | 1006.6 | |
| 20260503071737 | 61 | 0.0 | 0.0 | 0.02 | 0.02 | 0.02 | 88 | 1006.7 | |
| 20260503070716 | 61 | 45 | 1.0 | 3.0 | 0.02 | 0.02 | 0.02 | 87 | 1006.5 |
| 20260503054716 | 64 | 0.0 | 1.0 | 0.00 | 0.00 | 0.00 | 81 | 1006.8 | |
| 20260503053758 | 64 | 0.0 | 0.0 | 0.00 | 0.00 | 0.00 | 81 | 1006.9 | |
| 20260503052718 | 63 | 0.0 | 0.0 | 0.00 | 0.00 | 0.00 | 80 | 1007.1 | |
| 20260503051718 | 64 | 0.0 | 0.0 | 0.00 | 0.00 | 0.00 | 80 | 1007.1 | |
| 20260503050718 | 64 | 0.0 | 0.0 | 0.00 | 0.00 | 0.00 | 79 | 1007.1 | |
| 20260503045718 | 64 | 0.0 | 0.0 | 0.00 | 0.00 | 0.00 | 80 | 1007.4 | |
| 20260503044718 | 63 | 0.0 | 0.0 | 0.00 | 0.00 | 0.00 | 79 | 1007.4 | |
| 20260503043718 | 63 | 0.0 | 0.0 | 0.00 | 0.00 | 0.00 | 79 | 1007.3 | |
| 20260503042737 | 63 | 0.0 | 0.0 | 0.00 | 0.00 | 0.00 | 78 | 1007.5 | |
| 20260503041737 | 64 | 0.0 | 0.0 | 0.00 | 0.00 | 0.00 | 77 | 1007.6 | |
| 20260503040737 | 64 | 158 | 1.0 | 2.0 | 0.00 | 0.00 | 0.00 | 76 | 1008.0 |
| 20260503035717 | 64 | 0.0 | 0.0 | 0.00 | 0.00 | 0.00 | 76 | 1007.9 | |
| 20260503034717 | 64 | 0.0 | 0.0 | 0.00 | 0.00 | 0.00 | 75 | 1008.0 | |
| 20260503033717 | 64 | 0.0 | 0.0 | 0.00 | 0.00 | 0.00 | 75 | 1008.0 | |
| 20260503032717 | 64 | 0.0 | 1.0 | 0.00 | 0.00 | 0.00 | 74 | 1008.2 | |
| 20260503031717 | 64 | 203 | 1.0 | 2.0 | 0.00 | 0.00 | 0.00 | 74 | 1008.3 |
| 20260503030717 | 64 | 0.0 | 2.0 | 0.00 | 0.00 | 0.00 | 74 | 1008.1 | |
| 20260503025717 | 64 | 0.0 | 1.0 | 0.00 | 0.00 | 0.00 | 74 | 1008.3 | |
| 20260503024717 | 65 | 203 | 3.0 | 5.0 | 0.00 | 0.00 | 0.00 | 72 | 1008.6 |
| 20260503023718 | 66 | 203 | 2.0 | 3.0 | 0.00 | 0.00 | 0.00 | 71 | 1008.5 |
| 20260503022717 | 67 | 203 | 2.0 | 3.0 | 0.00 | 0.00 | 0.00 | 70 | 1008.7 |
| 20260503021717 | 66 | 248 | 1.0 | 1.0 | 0.00 | 0.00 | 0.00 | 71 | 1008.7 |
| 20260503020717 | 66 | 0.0 | 2.0 | 0.00 | 0.00 | 0.00 | 72 | 1009.1 | |
| 20260503015737 | 66 | 0.0 | 0.0 | 0.00 | 0.00 | 0.00 | 71 | 1009.5 | |
| 20260503014717 | 66 | 0.0 | 0.0 | 0.00 | 0.00 | 0.00 | 70 | 1009.7 | |
| 20260503013718 | 66 | 0.0 | 0.0 | 0.00 | 0.00 | 0.00 | 71 | 1009.9 | |
| 20260503012717 | 65 | 158 | 1.0 | 1.0 | 0.00 | 0.00 | 0.00 | 71 | 1010.1 |
| 20260503011717 | 65 | 158 | 1.0 | 4.0 | 0.00 | 0.00 | 0.00 | 72 | 1010.3 |
| 20260503010717 | 64 | 0.0 | 1.0 | 0.00 | 0.00 | 0.00 | 75 | 1010.5 | |
| 20260503005758 | 63 | 0.0 | 0.0 | 0.00 | 0.00 | 0.00 | 75 | 1010.5 | |
| 20260503004717 | 63 | 113 | 1.0 | 2.0 | 0.00 | 0.00 | 0.00 | 76 | 1010.6 |
| 20260503003717 | 62 | 0.0 | 0.0 | 0.00 | 0.00 | 0.00 | 76 | 1010.8 |